Tracking 34794 objects as of 19-Jul-2026
HD Live streaming from Space Station
objects crossing your sky now

STARLINK-11362

Track STARLINK-11362 now!
10-day predictions
STARLINK-11362 is classified as:


NORAD ID: 61535
Int'l Code: 2024-184D
Perigee: 366.2 km
Apogee: 367.5 km
Inclination: 53.2 °
Period: 91.7 minutes
Semi major axis: 6737 km
RCS: Unknown
Launch date: October 15, 2024
Source: United States (US)
Launch site: AIR FORCE WESTERN TEST RANGE (AFWTR)
Your satellite tracking list
Your tracking list is empty




NASA's NSSDC Master Catalog

Two Line Element Set (TLE):
1 61535U 24184D   26199.68559328  .00000895  00000-0  12241-4 0  9998
2 61535  53.1565 310.3577 0000969  75.7448 284.3678 15.69709417100998
Source of the keplerian elements: AFSPC